CW8756 Weather Reports


Display with metric or nautical units.
time (UTC)temp
F
wind
direction
speed
MPH
gust
MPH
rain 1hr
in
rain 24hr
in
rain mn
in
humidity
%
barometer
mb
20190423044535 74 75 3.0 9.0 0.00 0.00 0.00 82 1014.2
20190423044008 74 88 5.0 9.0 0.00 0.00 0.00 83 1014.2
20190423043508 73 65 4.0 9.0 0.00 0.00 0.00 83 1014.4
20190423043010 73 81 5.0 10.0 0.00 0.00 0.00 83 1014.4
20190423042509 74 65 4.0 10.0 0.00 0.00 0.00 83 1014.3
20190423042014 74 33 4.0 9.0 0.00 0.00 0.00 83 1014.5
20190423041509 74 66 3.0 9.0 0.00 0.00 0.00 83 1014.5
20190423041012 74 71 4.0 10.0 0.00 0.00 0.00 83 1014.6
20190423040503 73 94 5.0 10.0 0.00 0.00 0.00 84 1014.5
20190423040003 73 74 3.0 9.0 0.00 0.00 0.00 84 1014.6
20190423035503 73 26 4.0 9.0 0.00 0.00 0.00 84 1014.5
20190423035005 73 28 3.0 8.0 0.00 0.00 0.00 84 1014.6
20190423034503 73 61 2.0 9.0 0.00 0.00 0.00 84 1014.6
20190423034001 73 57 3.0 9.0 0.00 0.00 0.00 84 1014.6
20190423033503 73 60 4.0 8.0 0.00 0.00 0.00 84 1014.6
20190423033009 73 47 3.0 8.0 0.00 0.00 0.00 85 1014.7
20190423032503 73 55 3.0 7.0 0.00 0.00 0.00 85 1014.7
20190423032000 73 58 2.0 7.0 0.00 0.00 0.00 85 1014.6
20190423031500 73 41 2.0 7.0 0.00 0.00 0.00 85 1014.7
20190423031000 73 69 2.0 6.0 0.00 0.00 0.00 85 1014.8
20190423030603 73 62 0.0 4.0 0.00 0.00 0.00 85 1014.7
20190423030123 74 64 1.0 4.0 0.00 0.00 0.00 85 1014.7
20190423025559 74 68 1.0 3.0 0.00 0.00 0.00 85 1014.7
20190423025059 74 52 0.0 3.0 0.00 0.00 0.00 85 1014.8
20190423024629 74 29 0.0 0.0 0.00 0.00 0.00 85 1014.8
20190423024059 74 59 0.0 0.0 0.00 0.00 0.00 85 1014.7
20190423023603 74 61 0.0 3.0 0.00 0.00 0.00 85 1014.8
20190423023208 74 75 0.0 3.0 0.00 0.00 0.00 85 1014.7
20190423022602 74 62 0.0 4.0 0.00 0.00 0.00 85 1014.7
20190423022103 74 104 0.0 5.0 0.00 0.00 0.00 85 1014.7
20190423021615 74 57 2.0 5.0 0.00 0.00 0.00 85 1014.6
20190423021104 74 70 1.0 4.0 0.00 0.00 0.00 85 1014.6
20190423020603 74 77 2.0 5.0 0.00 0.00 0.00 85 1014.6
20190423020213 74 57 1.0 5.0 0.00 0.00 0.00 85 1014.5
20190423015557 74 58 2.0 5.0 0.00 0.07 0.00 86 1014.5
20190423015101 74 60 1.0 4.0 0.00 0.07 0.00 86 1014.5
20190423014647 74 45 1.0 4.0 0.00 0.07 0.00 86 1014.4
20190423014058 75 62 0.0 5.0 0.00 0.07 0.00 86 1014.4
20190423013556 75 55 1.0 5.0 0.00 0.07 0.00 87 1014.3
20190423013111 75 38 0.0 0.0 0.00 0.07 0.00 87 1014.3
20190423012556 75 50 0.0 0.0 0.00 0.07 0.00 87 1014.2
20190423011615 75 38 0.0 0.0 0.00 0.07 0.00 87 1014.2
20190423011100 75 49 0.0 0.0 0.00 0.07 0.00 87 1014.2
20190423010603 75 40 0.0 3.0 0.00 0.07 0.00 87 1014.0
20190423010205 75 76 1.0 3.0 0.00 0.07 0.00 86 1014.0
20190423005553 75 43 0.0 3.0 0.00 0.15 0.00 86 1013.9
20190423005059 75 77 0.0 3.0 0.00 0.15 0.00 86 1013.7
20190423004650 75 81 0.0 2.0 0.00 0.15 0.00 86 1013.7
20190423004055 75 65 0.0 3.0 0.00 0.15 0.00 86 1013.8
20190423003553 75 52 0.0 4.0 0.00 0.15 0.00 86 1013.7
20190423003152 76 45 1.0 4.0 0.00 0.15 0.00 86 1013.7
20190423002552 76 55 0.0 4.0 0.00 0.15 0.00 86 1013.7
20190423002054 76 40 2.0 4.0 0.00 0.15 0.00 86 1013.7
20190423001632 76 59 0.0 0.0 0.00 0.15 0.00 86 1013.7
20190423001053 76 69 0.0 0.0 0.00 0.15 0.00 86 1013.7
20190423000555 76 73 0.0 0.0 0.00 0.15 0.00 87 1013.7
20190423000131 75 72 0.0 0.0 0.00 0.15 0.00 87 1013.7
20190422235612 75 54 0.0 0.0 0.00 0.20 0.00 87 1013.7
20190422235052 75 315 0.0 0.0 0.00 0.20 0.00 88 1013.6
20190422234639 75 315 0.0 0.0 0.00 0.20 0.00 88 1013.6
20190422234051 75 315 0.0 0.0 0.00 0.20 0.00 88 1013.6
20190422233553 75 315 0.0 0.0 0.00 0.20 0.00 88 1013.6
20190422233206 75 170 0.0 0.0 0.00 0.20 0.00 88 1013.7
20190422232550 75 170 0.0 0.0 0.00 0.20 0.00 89 1013.6
20190422232056 75 170 0.0 0.0 0.00 0.20 0.00 89 1013.6
20190422231636 75 148 0.0 0.0 0.00 0.20 0.00 89 1013.6
20190422231051 75 133 0.0 0.0 0.00 0.20 0.00 88 1013.4
20190422230549 75 128 0.0 0.0 0.00 0.20 0.00 88 1013.5
20190422230119 76 168 0.0 0.0 0.00 0.20 0.00 88 1013.5
20190422225553 76 227 0.0 3.0 0.00 0.20 0.00 88 1013.5
20190422225049 76 190 1.0 5.0 0.00 0.20 0.00 87 1013.4
20190422224643 76 185 0.0 5.0 0.00 0.20 0.00 87 1013.4
20190422224053 76 195 1.0 5.0 0.00 0.20 0.00 87 1013.3
20190422223548 76 230 2.0 5.0 0.00 0.20 0.00 86 1013.3
20190422223136 76 189 1.0 5.0 0.00 0.20 0.00 85 1013.3
20190422222548 76 210 3.0 5.0 0.00 0.20 0.00 85 1013.4
20190422222047 77 181 1.0 5.0 0.00 0.20 0.00 84 1013.4
20190422221645 77 221 2.0 6.0 0.00 0.20 0.00 83 1013.4
20190422221051 77 145 2.0 6.0 0.00 0.20 0.00 82 1013.4
20190422220547 77 146 2.0 6.0 0.00 0.20 0.00 82 1013.3
20190422220141 78 137 0.0 5.0 0.00 0.20 0.00 82 1013.4
20190422215546 78 174 1.0 6.0 0.00 0.22 0.00 82 1013.3
20190422215046 78 139 1.0 4.0 0.00 0.22 0.00 83 1013.3
20190422214630 78 217 1.0 6.0 0.00 0.22 0.00 83 1013.3
20190422214050 78 208 3.0 6.0 0.00 0.22 0.00 82 1013.3
20190422213545 78 198 3.0 8.0 0.00 0.22 0.00 82 1013.3
20190422213212 79 178 2.0 8.0 0.00 0.22 0.00 81 1013.2
20190422212545 79 193 1.0 4.0 0.00 0.22 0.00 81 1013.3
20190422212048 79 229 1.0 4.0 0.00 0.22 0.00 80 1013.2
20190422211617 79 197 1.0 4.0 0.00 0.22 0.00 81 1013.2
20190422211043 79 214 0.0 0.0 0.00 0.22 0.00 82 1013.1
20190422210544 79 252 0.0 2.0 0.00 0.22 0.00 81 1013.2
20190422210200 79 270 0.0 2.0 0.00 0.22 0.00 80 1013.2
20190422205542 79 236 0.0 0.0 0.00 0.31 0.00 80 1013.2
20190422205041 79 170 0.0 3.0 0.00 0.31 0.00 81 1013.2
20190422204618 79 150 0.0 3.0 0.00 0.31 0.00 81 1013.1
20190422204043 80 233 0.0 4.0 0.00 0.31 0.00 80 1013.2
20190422203545 79 135 1.0 6.0 0.00 0.31 0.00 79 1013.1
20190422203133 80 197 2.0 6.0 0.00 0.31 0.00 80 1013.1
20190422202540 80 211 1.0 7.0 0.00 0.31 0.00 82 1013.0
20190422202039 79 132 1.0 7.0 0.00 0.31 0.00 83 1013.0
20190422201640 78 135 3.0 8.0 0.00 0.31 0.00 84 1013.1
20190422201043 78 154 4.0 8.0 0.00 0.31 0.00 84 1013.0
20190422200536 78 180 4.0 8.0 0.00 0.31 0.00 84 1013.1
20190422200140 78 205 4.0 8.0 0.00 0.31 0.00 84 1013.2
20190422195536 78 201 3.0 9.0 0.00 0.36 0.00 85 1013.3
20190422195035 78 180 3.0 9.0 0.00 0.36 0.00 87 1013.3
20190422194544 77 180 3.0 9.0 0.00 0.36 0.00 86 1013.3
20190422194035 77 178 4.0 10.0 0.00 0.36 0.00 85 1013.3
20190422193536 78 174 5.0 10.0 0.00 0.36 0.00 85 1013.3
20190422193142 78 215 2.0 9.0 0.00 0.36 0.00 84 1013.3
20190422192537 78 177 3.0 10.0 0.00 0.36 0.00 83 1013.3
20190422192035 79 179 4.0 11.0 0.00 0.36 0.00 83 1013.4
20190422191607 79 180 5.0 11.0 0.00 0.36 0.00 83 1013.3
20190422191033 79 167 5.0 11.0 0.00 0.36 0.00 83 1013.3
20190422190536 79 137 3.0 11.0 0.00 0.36 0.00 83 1013.3
20190422190155 79 188 4.0 10.0 0.00 0.36 0.00 83 1013.2
20190422185538 79 130 4.0 11.0 0.00 0.55 0.00 83 1013.4
20190422185034 78 139 4.0 11.0 0.00 0.55 0.00 85 1013.3
20190422184603 78 139 4.0 12.0 0.00 0.55 0.00 84 1013.4
20190422184035 77 160 5.0 14.0 0.00 0.55 0.00 85 1013.4
20190422183533 77 175 5.0 14.0 0.00 0.55 0.00 84 1013.6
20190422183110 77 185 2.0 9.0 0.00 0.55 0.00 85 1013.5
20190422182529 78 179 3.0 14.0 0.00 0.55 0.00 85 1013.5
20190422182032 78 108 4.0 14.0 0.00 0.55 0.00 86 1013.6
20190422181613 77 149 6.0 14.0 0.00 0.55 0.00 84 1013.8
20190422181028 78 129 5.0 11.0 0.00 0.55 0.00 83 1013.8
20190422180527 78 142 3.0 10.0 0.00 0.55 0.00 83 1013.9
20190422180059 78 116 2.0 12.0 0.00 0.55 0.00 82 1013.9
20190422175528 79 177 3.0 12.0 0.00 0.61 0.00 82 1014.0
20190422175026 79 183 5.0 12.0 0.00 0.61 0.00 80 1013.9
20190422174552 80 213 2.0 12.0 0.00 0.61 0.00 79 1014.2
20190422174029 81 152 3.0 12.0 0.00 0.61 0.00 77 1014.1
20190422173526 81 159 1.0 6.0 0.00 0.61 0.00 79 1014.2
20190422173058 80 209 0.0 6.0 0.00 0.61 0.00 79 1014.1
20190422172524 80 115 1.0 6.0 0.00 0.61 0.00 79 1014.0
20190422172026 80 145 1.0 9.0 0.00 0.61 0.00 79 1014.1
20190422171610 80 156 4.0 9.0 0.00 0.61 0.00 80 1014.1
20190422171023 80 240 3.0 8.0 0.00 0.61 0.00 80 1014.2
20190422170526 80 191 2.0 6.0 0.00 0.61 0.00 80 1014.1
20190422170102 80 66 1.0 4.0 0.00 0.61 0.00 80 1014.3
20190422165522 80 43 0.0 4.0 0.00 0.64 0.00 80 1014.2
20190422165028 80 58 2.0 13.0 0.00 0.64 0.00 79 1014.2
20190422164533 79 92 3.0 16.0 0.00 0.64 0.00 78 1014.2
20190422164021 79 48 9.0 16.0 0.00 0.64 0.00 79 1014.4
20190422163523 79 7 5.0 15.0 0.00 0.64 0.00 79 1014.4
20190422163040 80 206 5.0 17.0 0.00 0.64 0.00 79 1014.5
20190422162522 80 44 12.0 20.0 0.00 0.64 0.00 79 1014.6
20190422162020 80 12 10.0 22.0 0.00 0.64 0.00 78 1014.8
20190422161536 80 40 13.0 22.0 0.00 0.64 0.00 78 1014.7
20190422161024 80 24 12.0 22.0 0.00 0.64 0.00 78 1014.6
20190422160519 81 56 13.0 21.0 0.00 0.64 0.00 78 1014.8
20190422160026 81 26 14.0 23.0 0.00 0.64 0.00 79 1014.8
20190422155526 82 48 15.0 22.0 0.00 0.64 0.00 77 1014.8
20190422155021 82 36 10.0 19.0 0.00 0.64 0.00 78 1014.9
20190422154609 82 17 13.0 19.0 0.00 0.64 0.00 77 1014.9
20190422154023 81 45 11.0 18.0 0.00 0.64 0.00 78 1014.9
20190422153520 81 32 9.0 20.0 0.00 0.64 0.00 79 1015.1
20190422153051 80 75 13.0 20.0 0.00 0.64 0.00 79 1015.1
20190422152527 80 40 11.0 20.0 0.00 0.64 0.00 79 1015.2
20190422152016 80 38 9.0 20.0 0.00 0.64 0.00 79 1015.2
20190422151542 81 33 11.0 20.0 0.00 0.64 0.00 77 1015.2
20190422151016 81 41 12.0 18.0 0.00 0.64 0.00 77 1015.3
20190422150520 81 13 10.0 17.0 0.00 0.64 0.00 78 1015.1
20190422150028 81 349 9.0 16.0 0.00 0.64 0.00 79 1015.2
20190422145517 81 26 9.0 16.0 0.00 0.64 0.00 79 1015.3
20190422145019 82 29 10.0 16.0 0.00 0.64 0.00 77 1015.5
20190422144557 82 80 5.0 14.0 0.00 0.64 0.00 77 1015.5
20190422144013 81 359 4.0 12.0 0.00 0.64 0.00 78 1015.4
20190422143512 81 35 7.0 14.0 0.00 0.64 0.00 77 1015.5
20190422143012 81 10 7.0 14.0 0.00 0.64 0.00 78 1015.4
20190422142509 80 19 6.0 12.0 0.00 0.64 0.00 78 1015.4
20190422141516 80 41 8.0 15.0 0.00 0.64 0.00 79 1015.4
20190422141007 80 43 8.0 15.0 0.00 0.64 0.00 79 1015.4
20190422140506 80 82 6.0 13.0 0.00 0.64 0.00 81 1015.4
20190422140018 80 21 5.0 11.0 0.00 0.64 0.00 80 1015.3
20190422135508 80 28 5.0 12.0 0.00 0.64 0.00 83 1015.3
20190422135003 79 55 4.0 12.0 0.00 0.64 0.00 82 1015.3
20190422134504 79 38 4.0 10.0 0.00 0.64 0.00 84 1015.3
20190422134103 78 78 5.0 10.0 0.00 0.64 0.00 85 1015.4
20190422133559 77 36 5.0 13.0 0.00 0.64 0.00 85 1015.4
20190422133145 76 76 5.0 13.0 0.00 0.64 0.00 86 1015.4
20190422132600 76 68 4.0 13.0 0.00 0.64 0.00 87 1015.4
20190422132056 76 34 6.0 12.0 0.00 0.64 0.00 87 1015.4
20190422131717 76 12 4.0 9.0 0.00 0.64 0.00 88 1015.4
20190422131054 75 38 3.0 9.0 0.00 0.64 0.00 88 1015.4
20190422130557 75 32 5.0 9.0 0.00 0.64 0.00 88 1015.5
20190422130143 75 19 4.0 10.0 0.00 0.64 0.00 88 1015.4
20190422125555 75 41 6.0 10.0 0.00 0.64 0.00 88 1015.4
20190422125103 75 26 3.0 9.0 0.00 0.64 0.00 89 1015.4
20190422124630 75 44 5.0 9.0 0.00 0.64 0.00 89 1015.3
20190422124054 75 36 3.0 7.0 0.00 0.64 0.00 89 1015.3
20190422123558 74 47 2.0 8.0 0.00 0.64 0.00 88 1015.3
20190422123209 74 81 3.0 8.0 0.00 0.64 0.00 88 1015.3
20190422122555 74 48 2.0 7.0 0.00 0.64 0.00 89 1015.3
20190422122053 74 31 4.0 8.0 0.00 0.64 0.00 89 1015.3
20190422121626 74 63 5.0 8.0 0.00 0.64 0.00 90 1015.3
20190422121049 74 41 3.0 8.0 0.00 0.64 0.00 90 1015.4
20190422120545 73 29 4.0 8.0 0.00 0.64 0.00 90 1015.3
20190422120134 73 78 3.0 8.0 0.00 0.64 0.00 91 1015.4
20190422115544 73 71 4.0 8.0 0.00 0.64 0.00 91 1015.3
20190422115042 73 48 5.0 8.0 0.00 0.64 0.00 91 1015.3
20190422114721 72 67 2.0 11.0 0.00 0.64 0.00 92 1015.3
20190422114039 72 44 5.0 11.0 0.00 0.64 0.00 92 1015.4
20190422113541 72 67 2.0 8.0 0.00 0.64 0.00 92 1015.3
20190422113057 72 48 3.0 8.0 0.00 0.64 0.00 92 1015.3
20190422112539 72 85 2.0 7.0 0.00 0.64 0.00 92 1015.2
20190422112036 72 89 2.0 8.0 0.00 0.64 0.00 92 1015.2
20190422111626 72 48 4.0 8.0 0.00 0.64 0.00 92 1015.1
20190422111034 72 52 2.0 9.0 0.00 0.64 0.00 92 1015.1
20190422110532 71 45 3.0 9.0 0.00 0.64 0.00 93 1015.1
20190422110114 71 55 3.0 9.0 0.00 0.64 0.00 93 1015.0
20190422105531 71 49 2.0 6.0 0.00 0.64 0.00 93 1015.1
20190422105030 71 39 2.0 6.0 0.00 0.64 0.00 93 1015.1
20190422104631 71 34 3.0 5.0 0.00 0.64 0.00 92 1015.1
20190422104035 71 24 0.0 4.0 0.00 0.64 0.00 92 1015.0
20190422103529 71 51 2.0 5.0 0.00 0.64 0.00 92 1015.0
20190422103123 71 40 3.0 5.0 0.00 0.64 0.00 92 1015.0
20190422102531 71 19 2.0 6.0 0.00 0.64 0.00 92 1014.9
20190422102033 71 43 4.0 8.0 0.00 0.64 0.00 91 1014.9
20190422101606 71 50 3.0 8.0 0.00 0.64 0.00 91 1014.9
20190422101028 72 39 3.0 6.0 0.00 0.64 0.00 90 1014.9
20190422100528 72 35 2.0 6.0 0.00 0.64 0.00 90 1014.8
20190422100130 72 26 1.0 11.0 0.00 0.64 0.00 90 1014.7
20190422095532 72 43 5.0 11.0 0.00 0.64 0.00 90 1014.7
20190422095034 72 30 2.0 9.0 0.00 0.64 0.00 91 1014.7
20190422094549 72 49 3.0 9.0 0.00 0.64 0.00 91 1014.6
20190422094031 72 56 1.0 7.0 0.00 0.64 0.00 91 1014.6
20190422093526 72 81 0.0 7.0 0.00 0.64 0.00 91 1014.6
20190422093041 72 64 1.0 8.0 0.00 0.64 0.00 91 1014.5
20190422092527 72 87 2.0 8.0 0.00 0.64 0.00 91 1014.4
20190422092032 72 52 3.0 8.0 0.00 0.64 0.00 91 1014.5
20190422091024 71 69 4.0 9.0 0.00 0.64 0.00 91 1014.4
20190422090527 71 74 4.0 8.0 0.00 0.64 0.00 92 1014.3
20190422090047 71 57 4.0 8.0 0.00 0.64 0.00 93 1014.3
20190422085524 71 90 3.0 6.0 0.00 0.64 0.00 93 1014.2
20190422085029 71 45 0.0 4.0 0.00 0.64 0.00 93 1014.3
20190422084548 71 60 0.0 3.0 0.00 0.64 0.00 93 1014.3
20190422084020 71 54 1.0 4.0 0.00 0.64 0.00 92 1014.3
20190422083520 71 44 0.0 4.0 0.00 0.64 0.00 92 1014.3
20190422083047 71 41 0.0 5.0 0.00 0.64 0.00 92 1014.3
20190422082526 71 64 0.0 5.0 0.00 0.64 0.00 92 1014.2
20190422082027 71 46 1.0 5.0 0.00 0.64 0.00 92 1014.2
20190422081542 71 67 2.0 7.0 0.00 0.64 0.00 92 1014.2
20190422081021 71 76 1.0 7.0 0.00 0.64 0.00 92 1014.2
20190422080519 71 90 2.0 6.0 0.00 0.64 0.00 93 1014.3
20190422080038 71 69 0.0 5.0 0.00 0.64 0.00 93 1014.2
20190422075517 71 93 0.0 5.0 0.00 0.64 0.00 93 1014.3
20190422075019 71 104 1.0 7.0 0.00 0.64 0.00 93 1014.3
20190422074530 71 83 1.0 7.0 0.00 0.64 0.00 93 1014.3
20190422074017 71 57 1.0 5.0 0.00 0.64 0.00 93 1014.3
20190422073517 71 46 0.0 4.0 0.00 0.64 0.00 93 1014.3
20190422073043 71 58 1.0 6.0 0.00 0.64 0.00 93 1014.4
20190422072518 71 59 1.0 6.0 0.00 0.64 0.00 93 1014.4
20190422072021 71 86 0.0 4.0 0.00 0.64 0.00 93 1014.3
20190422071526 71 66 0.0 4.0 0.00 0.64 0.00 93 1014.5
20190422071020 71 72 0.0 7.0 0.00 0.64 0.00 93 1014.5
20190422070518 71 59 0.0 7.0 0.00 0.64 0.00 94 1014.5
20190422070020 71 83 1.0 6.0 0.00 0.64 0.00 94 1014.5
20190422065514 71 69 0.0 0.0 0.00 0.64 0.00 94 1014.6
20190422065012 71 121 0.0 0.0 0.00 0.64 0.00 94 1014.6
20190422064013 71 108 0.0 0.0 0.00 0.64 0.00 95 1014.6
20190422063511 71 90 0.0 0.0 0.00 0.64 0.00 95 1014.6
20190422063011 71 88 0.0 0.0 0.00 0.64 0.00 95 1014.7
20190422062513 71 56 0.0 0.0 0.00 0.64 0.00 95 1014.7
20190422062010 71 48 0.0 0.0 0.00 0.64 0.00 95 1014.8
20190422061534 71 65 0.0 0.0 0.00 0.64 0.00 95 1014.8
20190422061012 71 48 0.0 0.0 0.00 0.64 0.00 95 1014.8
20190422060513 71 48 0.0 0.0 0.00 0.64 0.00 95 1014.7
20190422060010 71 40 0.0 0.0 0.00 0.64 0.00 95 1014.8
20190422055508 71 36 0.0 0.0 0.00 0.64 0.00 95 1014.8
20190422055007 71 50 0.0 0.0 0.00 0.64 0.00 95 1014.9
20190422054506 71 66 0.0 0.0 0.00 0.64 0.00 95 1015.2
20190422054008 71 43 0.0 0.0 0.00 0.64 0.00 95 1015.2
20190422053511 71 62 0.0 0.0 0.00 0.64 0.00 95 1015.3
20190422053009 71 59 0.0 0.0 0.00 0.64 0.00 95 1015.3
20190422052504 71 68 0.0 0.0 0.00 0.64 0.00 95 1015.5
20190422052002 71 75 0.0 0.0 0.00 0.64 0.00 95 1015.4
20190422051503 71 76 0.0 4.0 0.00 0.64 0.00 95 1015.4
20190422051002 72 77 0.0 7.0 0.00 0.64 0.00 95 1015.5
20190422050141 72 90 2.0 8.0 0.00 0.64 0.00 95 1015.4
20190422045604 72 66 0.0 7.0 0.00 0.64 0.00 95 1015.5
20190422045105 72 46 1.0 7.0 0.00 0.64 0.00 95 1015.6